DW5018 Weather Reports


Display with metric or nautical units.
time (UTC)temp
F
wind
direction
speed
MPH
gust
MPH
rain 1hr
in
rain 24hr
in
rain mn
in
humidity
%
barometer
mb
20260510230503 73 99 5.0 9.0 0.00 0.01 0.01 67 1012.5
20260510230013 73 105 6.0 9.0 0.00 0.01 0.01 69 1012.5
20260510225503 73 110 7.0 11.0 0.00 0.01 0.01 66 1012.5
20260510225006 73 107 7.0 11.0 0.00 0.01 0.01 66 1012.5
20260510224514 74 101 7.0 12.0 0.00 0.01 0.01 66 1012.4
20260510224001 74 107 10.0 12.0 0.00 0.01 0.01 63 1012.5
20260510223503 74 112 8.0 14.0 0.00 0.01 0.01 61 1012.6
20260510223004 74 120 11.0 14.0 0.00 0.04 0.01 61 1012.6
20260510222504 74 114 10.0 14.0 0.00 0.06 0.01 64 1012.6
20260510222003 74 119 12.0 16.0 0.00 0.08 0.01 61 1012.5
20260510221507 74 118 12.0 17.0 0.00 0.10 0.01 61 1012.4
20260510221003 74 122 12.0 17.0 0.00 0.13 0.01 63 1012.4
20260510220504 74 123 13.0 17.0 0.00 0.15 0.01 63 1012.6
20260510220008 74 127 13.0 17.0 0.00 0.15 0.01 63 1012.7
20260510215502 74 120 12.0 17.0 0.00 0.15 0.01 64 1012.6
20260510215003 74 120 12.0 16.0 0.00 0.15 0.01 62 1012.6
20260510214513 74 119 12.0 16.0 0.00 0.15 0.01 60 1012.6
20260510214007 74 114 11.0 19.0 0.00 0.15 0.01 63 1012.6
20260510213507 75 126 12.0 19.0 0.00 0.15 0.01 61 1012.5
20260510213018 75 124 15.0 19.0 0.00 0.15 0.01 52 1012.6
20260510212504 75 116 11.0 15.0 0.00 0.15 0.01 61 1012.5
20260510212003 75 110 9.0 15.0 0.00 0.15 0.01 64 1012.5
20260510211504 75 120 11.0 14.0 0.00 0.15 0.01 63 1012.6
20260510211004 74 124 11.0 14.0 0.00 0.15 0.01 63 1012.6
20260510210505 74 118 10.0 13.0 0.00 0.15 0.01 66 1012.6
20260510210006 74 122 10.0 12.0 0.00 0.15 0.01 68 1012.5
20260510205503 74 131 9.0 12.0 0.00 0.15 0.01 67 1012.4
20260510205006 74 120 9.0 14.0 0.00 0.15 0.01 68 1012.4
20260510204510 74 127 9.0 19.0 0.00 0.15 0.01 67 1012.4
20260510204006 74 129 12.0 19.0 0.00 0.15 0.01 62 1012.4
20260510203503 74 131 10.0 14.0 0.00 0.15 0.01 65 1012.4
20260510203016 75 131 10.0 14.0 0.00 0.15 0.01 65 1012.4
20260510202508 75 141 10.0 17.0 0.00 0.15 0.01 62 1012.4
20260510202012 75 134 11.0 17.0 0.00 0.15 0.01 58 1012.4
20260510201520 75 134 10.0 15.0 0.00 0.15 0.01 59 1012.5
20260510201003 75 127 9.0 15.0 0.00 0.15 0.01 61 1012.7
20260510200503 76 136 7.0 15.0 0.00 0.15 0.01 60 1012.7
20260510200005 76 132 11.0 14.0 0.00 0.15 0.01 58 1012.8
20260510195504 76 131 9.0 13.0 0.00 0.15 0.01 59 1012.8
20260510195006 76 139 6.0 12.0 0.00 0.15 0.01 60 1012.9
20260510194506 76 143 7.0 10.0 0.00 0.15 0.01 60 1012.9
20260510194004 76 136 6.0 12.0 0.00 0.15 0.01 60 1013.0
20260510193505 76 146 9.0 12.0 0.00 0.15 0.01 60 1013.0
20260510193015 76 131 8.0 13.0 0.00 0.15 0.01 60 1013.1
20260510192507 76 134 8.0 13.0 0.00 0.15 0.01 60 1013.2
20260510192009 77 135 8.0 11.0 0.00 0.15 0.01 57 1013.3
20260510191517 77 142 7.0 10.0 0.00 0.15 0.01 58 1013.3
20260510191008 77 146 6.0 10.0 0.00 0.15 0.01 60 1013.4
20260510190511 77 134 6.0 9.0 0.00 0.15 0.01 58 1013.4
20260510190024 77 148 5.0 8.0 0.00 0.15 0.01 58 1013.4
20260510185503 76 141 6.0 8.0 0.00 0.15 0.01 60 1013.3
20260510185002 76 117 4.0 6.0 0.00 0.15 0.01 63 1013.4
20260510184509 75 121 4.0 6.0 0.00 0.15 0.01 70 1013.5
20260510184006 76 113 3.0 7.0 0.00 0.15 0.01 69 1013.5
20260510183503 76 112 4.0 9.0 0.00 0.15 0.01 62 1013.4
20260510183013 76 127 4.0 9.0 0.00 0.15 0.01 63 1013.3
20260510182507 75 127 5.0 7.0 0.00 0.15 0.01 63 1013.5
20260510182009 75 116 4.0 6.0 0.00 0.15 0.01 70 1013.6
20260510181520 75 112 3.0 6.0 0.00 0.15 0.01 64 1013.7
20260510181008 75 113 5.0 7.0 0.00 0.15 0.01 65 1013.8
20260510180507 75 117 4.0 7.0 0.00 0.15 0.01 65 1013.8
20260510180020 75 127 6.0 7.0 0.00 0.15 0.01 61 1013.8
20260510175509 75 110 3.0 7.0 0.00 0.15 0.01 70 1013.7
20260510175007 74 127 6.0 7.0 0.00 0.15 0.01 66 1013.7
20260510174505 73 115 5.0 7.0 0.00 0.15 0.01 72 1013.7
20260510174007 74 118 5.0 7.0 0.00 0.15 0.01 74 1013.6
20260510173506 75 113 4.0 7.0 0.00 0.15 0.01 76 1013.7
20260510173008 75 105 5.0 7.0 0.00 0.15 0.01 67 1013.8
20260510172503 75 105 5.0 6.0 0.00 0.15 0.01 67 1013.9
20260510172004 76 102 5.0 6.0 0.00 0.15 0.01 65 1014.1
20260510171515 75 84 3.0 6.0 0.00 0.15 0.01 58 1014.1
20260510171008 75 101 5.0 6.0 0.00 0.15 0.01 59 1014.1
20260510170506 75 103 4.0 5.0 0.00 0.15 0.01 59 1014.1
20260510170021 74 110 4.0 5.0 0.00 0.15 0.01 66 1014.2
20260510165506 75 117 3.0 6.0 0.00 0.15 0.01 72 1014.2
20260510165010 75 117 4.0 6.0 0.00 0.15 0.01 60 1014.2
20260510164521 76 113 3.0 5.0 0.00 0.15 0.01 59 1014.2
20260510164008 75 115 3.0 4.0 0.00 0.15 0.01 59 1014.2
20260510163510 75 117 2.0 4.0 0.00 0.15 0.01 59 1014.3
20260510163006 75 117 3.0 5.0 0.00 0.15 0.01 62 1014.4
20260510162503 75 117 3.0 5.0 0.00 0.15 0.01 61 1014.4
20260510162006 74 116 4.0 6.0 0.00 0.15 0.01 62 1014.4
20260510161515 74 111 4.0 6.0 0.00 0.15 0.01 61 1014.4
20260510161004 73 114 3.0 6.0 0.00 0.15 0.01 61 1014.5
20260510160508 73 105 4.0 6.0 0.00 0.15 0.01 62 1014.6
20260510160015 72 105 4.0 6.0 0.00 0.15 0.01 63 1014.6
20260510155507 72 109 5.0 6.0 0.00 0.15 0.01 64 1014.7
20260510155008 72 114 4.0 5.0 0.00 0.15 0.01 63 1014.7
20260510154518 72 113 3.0 5.0 0.00 0.15 0.01 64 1014.7
20260510154007 72 114 3.0 5.0 0.00 0.15 0.01 64 1014.7
20260510153513 72 110 3.0 5.0 0.00 0.15 0.01 64 1014.7
20260510153038 71 102 3.0 5.0 0.00 0.15 0.01 63 1014.7
20260510152512 70 89 3.0 4.0 0.00 0.15 0.01 60 1014.7
20260510152012 69 103 3.0 5.0 0.00 0.15 0.01 64 1014.7
20260510151506 68 105 3.0 5.0 0.00 0.15 0.01 67 1014.8
20260510151004 68 108 4.0 5.0 0.00 0.15 0.01 73 1014.8
20260510150504 68 113 3.0 5.0 0.00 0.15 0.01 76 1014.7
20260510150015 68 112 4.0 6.0 0.00 0.15 0.01 75 1014.7
20260510145504 68 109 4.0 7.0 0.00 0.15 0.01 73 1014.7
20260510145009 69 101 4.0 7.0 0.00 0.15 0.01 73 1014.7
20260510144518 69 109 2.0 4.0 0.00 0.15 0.01 72 1014.5
20260510144009 69 103 1.0 5.0 0.00 0.15 0.01 73 1014.5
20260510143512 68 103 1.0 5.0 0.00 0.15 0.01 75 1014.5
20260510143005 68 102 3.0 5.0 0.00 0.15 0.01 74 1014.5
20260510142506 68 248 1.0 4.0 0.00 0.15 0.01 72 1014.5
20260510142003 67 247 2.0 4.0 0.00 0.15 0.01 74 1014.5
20260510141504 67 246 2.0 4.0 0.00 0.15 0.01 76 1014.5
20260510141005 66 246 2.0 3.0 0.00 0.15 0.01 76 1014.5
20260510140505 66 250 1.0 4.0 0.00 0.15 0.01 76 1014.5
20260510140010 66 249 2.0 4.0 0.00 0.15 0.01 77 1014.5
20260510135505 66 249 2.0 4.0 0.00 0.15 0.01 77 1014.4
20260510135005 65 244 2.0 4.0 0.00 0.15 0.01 78 1014.3
20260510134503 65 240 2.0 5.0 0.00 0.15 0.01 79 1014.3
20260510134002 65 242 3.0 5.0 0.00 0.15 0.01 81 1014.4
20260510133502 65 229 2.0 6.0 0.00 0.15 0.01 82 1014.3
20260510133008 65 241 3.0 6.0 0.00 0.15 0.01 82 1014.3
20260510132506 65 248 3.0 5.0 0.00 0.15 0.01 83 1014.3
20260510132004 65 239 3.0 5.0 0.00 0.15 0.01 83 1014.4
20260510131507 65 256 2.0 5.0 0.00 0.15 0.01 85 1014.5
20260510131003 64 261 3.0 5.0 0.00 0.15 0.01 85 1014.4
20260510130504 64 277 2.0 4.0 0.00 0.15 0.01 85 1014.2
20260510130028 64 277 2.0 5.0 0.00 0.15 0.01 85 1014.2
20260510125503 63 278 3.0 5.0 0.00 0.15 0.01 85 1014.2
20260510125010 63 288 3.0 5.0 0.00 0.15 0.01 86 1014.2
20260510124513 63 286 3.0 4.0 0.01 0.15 0.01 87 1014.2
20260510124007 63 267 2.0 5.0 0.01 0.15 0.01 87 1014.2
20260510123504 63 262 3.0 5.0 0.01 0.15 0.01 87 1014.3
20260510123003 63 269 3.0 5.0 0.01 0.15 0.01 87 1014.3
20260510122502 63 267 3.0 5.0 0.01 0.15 0.01 88 1014.2
20260510122007 63 252 2.0 5.0 0.01 0.15 0.01 88 1014.2
20260510121502 63 262 3.0 5.0 0.01 0.15 0.01 88 1014.1
20260510121003 63 267 3.0 5.0 0.01 0.15 0.01 88 1014.0
20260510120503 63 276 3.0 5.0 0.01 0.15 0.01 88 1013.9
20260510120026 63 276 3.0 6.0 0.01 0.15 0.01 87 1013.7
20260510115503 63 257 4.0 6.0 0.01 0.15 0.01 87 1013.6
20260510115004 63 278 1.0 4.0 0.01 0.15 0.01 88 1013.5
20260510114516 63 278 2.0 4.0 0.00 0.14 0.00 88 1013.5
20260510114007 63 284 2.0 4.0 0.00 0.14 0.00 89 1013.4
20260510113506 63 280 0.0 0.0 0.00 0.14 0.00 91 1013.4
20260510113015 61 280 0.0 0.0 0.00 0.14 0.00 92 1013.4
20260510112507 61 281 0.0 1.0 0.00 0.14 0.00 92 1013.3
20260510112010 60 280 0.0 1.0 0.00 0.14 0.00 93 1013.3
20260510111503 60 280 0.0 1.0 0.00 0.14 0.00 93 1013.2
20260510111004 60 278 0.0 0.0 0.00 0.14 0.00 93 1013.2
20260510110507 59 281 0.0 0.0 0.00 0.14 0.00 93 1013.1
20260510110007 59 318 0.0 0.0 0.00 0.14 0.00 93 1012.9
20260510105504 59 318 0.0 0.0 0.00 0.14 0.00 93 1012.8
20260510105003 59 318 0.0 0.0 0.00 0.14 0.00 92 1012.8
20260510104506 59 318 0.0 0.0 0.00 0.14 0.00 92 1012.8
20260510104009 59 318 0.0 0.0 0.00 0.14 0.00 91 1012.8
20260510103504 59 318 0.0 0.0 0.00 0.14 0.00 91 1012.7
20260510103019 59 318 0.0 0.0 0.00 0.14 0.00 91 1012.5
20260510102507 59 318 0.0 0.0 0.00 0.14 0.00 91 1012.5
20260510102009 59 318 0.0 0.0 0.00 0.14 0.00 91 1012.4
20260510101530 59 318 0.0 0.0 0.00 0.14 0.00 90 1012.3
20260510101006 59 318 0.0 2.0 0.00 0.14 0.00 90 1012.4
20260510100510 60 318 0.0 3.0 0.00 0.14 0.00 90 1012.2
20260510100003 60 317 0.0 3.0 0.00 0.14 0.00 89 1012.1
20260510095503 60 319 0.0 1.0 0.00 0.14 0.00 89 1012.0
20260510095007 60 319 0.0 3.0 0.00 0.14 0.00 89 1012.0
20260510094508 60 319 1.0 3.0 0.00 0.14 0.00 89 1012.0
20260510094004 60 319 1.0 3.0 0.00 0.14 0.00 89 1011.9
20260510093503 60 319 1.0 3.0 0.00 0.14 0.00 88 1011.9
20260510093011 61 319 1.0 3.0 0.00 0.14 0.00 88 1011.8
20260510092507 61 320 1.0 4.0 0.00 0.14 0.00 88 1011.8
20260510092007 61 317 2.0 4.0 0.00 0.14 0.00 88 1011.8
20260510091527 61 307 1.0 3.0 0.00 0.14 0.00 88 1011.7
20260510091007 61 307 1.0 4.0 0.00 0.14 0.00 89 1011.7
20260510090508 61 305 2.0 4.0 0.00 0.14 0.00 89 1011.7
20260510090026 61 303 1.0 3.0 0.00 0.14 0.00 89 1011.6
20260510085509 61 298 1.0 5.0 0.00 0.14 0.00 89 1011.6
20260510085009 61 296 2.0 5.0 0.00 0.14 0.00 88 1011.5
20260510084505 61 320 2.0 3.0 0.00 0.14 0.00 88 1011.5
20260510084006 62 309 0.0 2.0 0.00 0.14 0.00 88 1011.5
20260510083504 62 318 0.0 0.0 0.00 0.14 0.00 87 1011.4
20260510083008 62 318 0.0 0.0 0.00 0.14 0.00 87 1011.4
20260510082504 63 316 0.0 2.0 0.00 0.14 0.00 87 1011.4
20260510082006 63 314 0.0 3.0 0.00 0.14 0.00 87 1011.4
20260510081511 63 314 1.0 3.0 0.00 0.14 0.00 87 1011.3
20260510081007 63 314 1.0 4.0 0.00 0.14 0.00 86 1011.3
20260510080507 64 314 1.0 4.0 0.00 0.14 0.00 86 1011.3
20260510080020 64 301 2.0 4.0 0.00 0.14 0.00 87 1011.3
20260510075510 64 295 1.0 4.0 0.00 0.14 0.00 87 1011.2
20260510075008 64 292 2.0 4.0 0.00 0.14 0.00 87 1011.2
20260510074523 64 295 2.0 4.0 0.00 0.14 0.00 87 1011.1
20260510074012 64 294 1.0 6.0 0.00 0.14 0.00 86 1011.1
20260510073516 64 290 3.0 6.0 0.00 0.14 0.00 86 1011.0
20260510073007 64 283 2.0 5.0 0.00 0.14 0.00 86 1011.1
20260510072504 65 262 2.0 5.0 0.00 0.14 0.00 86 1011.1
20260510072009 65 267 3.0 5.0 0.00 0.14 0.00 85 1011.0
20260510071518 65 271 3.0 6.0 0.00 0.14 0.00 85 1011.0
20260510071004 65 285 2.0 7.0 0.00 0.14 0.00 84 1011.0
20260510070506 66 274 5.0 7.0 0.00 0.14 0.00 84 1011.0
20260510070021 65 281 3.0 6.0 0.00 0.14 0.00 83 1011.0
20260510065507 66 284 3.0 8.0 0.00 0.14 0.00 83 1011.0
20260510065012 66 273 5.0 10.0 0.00 0.14 0.00 83 1010.9
20260510064530 66 268 7.0 10.0 0.00 0.14 0.00 84 1010.7
20260510064008 65 269 7.0 10.0 0.00 0.14 0.00 84 1010.9
20260510063514 65 298 2.0 4.0 0.00 0.14 0.00 83 1011.1
20260510063022 65 345 1.0 5.0 0.00 0.14 0.00 83 1011.1
20260510062511 65 345 1.0 6.0 0.00 0.14 0.00 83 1011.1
20260510062010 66 349 3.0 7.0 0.00 0.14 0.00 82 1011.1
20260510061518 66 339 1.0 7.0 0.00 0.14 0.00 81 1010.9
20260510061004 66 312 3.0 7.0 0.00 0.14 0.00 81 1010.8
20260510060505 67 273 3.0 6.0 0.00 0.14 0.00 81 1010.8
20260510060013 67 264 3.0 8.0 0.00 0.14 0.00 81 1010.8
20260510055505 67 261 3.0 8.0 0.00 0.14 0.00 81 1010.8
20260510055008 67 268 3.0 8.0 0.00 0.14 0.00 81 1010.8
20260510054518 67 250 4.0 9.0 0.00 0.14 0.00 82 1010.8
20260510054012 67 271 5.0 9.0 0.00 0.14 0.00 81 1010.8
20260510053508 67 266 4.0 8.0 0.00 0.14 0.00 81 1010.7
20260510053026 67 233 3.0 6.0 0.00 0.14 0.00 81 1010.9
20260510052507 67 268 2.0 4.0 0.00 0.14 0.00 81 1010.8
20260510052010 67 277 1.0 4.0 0.00 0.14 0.00 80 1010.8
20260510051526 67 276 2.0 7.0 0.00 0.14 0.00 80 1010.8
20260510051011 67 256 3.0 7.0 0.00 0.14 0.00 80 1010.9
20260510050503 67 261 3.0 6.0 0.00 0.14 0.00 80 1010.9
20260510050004 67 271 2.0 6.0 0.00 0.14 0.00 80 1010.9
20260510045504 67 233 2.0 6.0 0.00 0.14 0.00 80 1010.8
20260510045007 67 271 2.0 6.0 0.00 0.14 0.00 79 1010.8
20260510044512 67 269 2.0 6.0 0.00 0.14 0.00 79 1010.8
20260510044003 67 258 2.0 6.0 0.00 0.14 0.00 79 1010.8
20260510043503 67 245 3.0 6.0 0.00 0.14 0.00 78 1010.9
20260510043004 67 238 2.0 6.0 0.00 0.14 0.00 78 1010.8
20260510042504 67 250 1.0 8.0 0.00 0.14 0.00 78 1010.8
20260510042001 68 240 3.0 8.0 0.00 0.14 0.00 78 1010.8
20260510041510 68 274 2.0 7.0 0.00 0.14 0.00 78 1010.8
20260510041002 68 269 2.0 8.0 0.00 0.14 0.00 77 1010.7
20260510040502 68 254 3.0 8.0 0.00 0.14 0.00 77 1010.7
20260510040005 67 273 4.0 7.0 0.00 0.14 0.00 78 1010.7
20260510035502 67 238 3.0 6.0 0.00 0.14 0.14 78 1010.7
20260510035002 67 243 2.0 4.0 0.00 0.14 0.14 79 1010.7
20260510034507 66 267 0.0 2.0 0.00 0.14 0.14 80 1010.7
20260510034004 66 251 0.0 5.0 0.00 0.14 0.14 80 1010.7
20260510033503 66 245 1.0 5.0 0.00 0.14 0.14 81 1010.6
20260510033005 65 120 0.0 4.0 0.00 0.14 0.14 81 1010.6
20260510032503 65 117 0.0 3.0 0.00 0.14 0.14 82 1010.5
20260510032005 65 118 0.0 3.0 0.00 0.14 0.14 82 1010.5
20260510031506 65 117 0.0 3.0 0.00 0.14 0.14 82 1010.4
20260510031003 65 119 0.0 2.0 0.00 0.14 0.14 81 1010.4
20260510030503 66 117 0.0 3.0 0.00 0.14 0.14 81 1010.4
20260510030005 66 116 0.0 3.0 0.00 0.14 0.14 81 1010.3
20260510025502 66 127 0.0 2.0 0.00 0.14 0.14 81 1010.3
20260510025004 66 113 1.0 3.0 0.00 0.14 0.14 81 1010.3
20260510024504 66 109 1.0 3.0 0.00 0.14 0.14 82 1010.3
20260510024003 66 109 1.0 3.0 0.00 0.14 0.14 83 1010.3
20260510023505 66 108 2.0 4.0 0.00 0.14 0.14 84 1010.2
20260510023009 66 108 2.0 4.0 0.00 0.14 0.14 83 1010.1
20260510022503 67 120 2.0 4.0 0.00 0.14 0.14 83 1010.1
20260510022004 67 122 2.0 4.0 0.00 0.14 0.14 82 1010.1
20260510021516 67 122 2.0 3.0 0.00 0.14 0.14 82 1010.0
20260510021003 67 122 1.0 4.0 0.00 0.14 0.14 82 1010.0
20260510020504 67 122 1.0 4.0 0.00 0.14 0.14 82 1010.0
20260510020004 67 122 3.0 4.0 0.00 0.14 0.14 82 1009.9
20260510015505 67 125 2.0 5.0 0.00 0.14 0.14 83 1009.9
20260510015005 67 124 3.0 5.0 0.00 0.14 0.14 83 1009.8
20260510014509 67 121 3.0 6.0 0.00 0.14 0.14 83 1009.8
20260510014003 67 120 4.0 6.0 0.00 0.14 0.14 81 1009.7
20260510013502 68 117 4.0 6.0 0.00 0.14 0.14 81 1009.7
20260510013009 68 129 4.0 6.0 0.00 0.14 0.14 79 1009.7
20260510012503 68 127 3.0 5.0 0.00 0.14 0.14 79 1009.7
20260510012004 68 129 3.0 5.0 0.00 0.14 0.14 79 1009.6
20260510011510 68 129 3.0 6.0 0.00 0.14 0.14 78 1009.5
20260510011003 68 124 4.0 6.0 0.00 0.14 0.14 77 1009.6
20260510010504 68 132 3.0 5.0 0.00 0.14 0.14 78 1009.5
20260510010007 68 129 3.0 5.0 0.00 0.14 0.14 78 1009.3
20260510005504 68 126 3.0 5.0 0.00 0.14 0.14 79 1009.2
20260510005004 67 118 1.0 4.0 0.00 0.14 0.14 80 1009.2
20260510004508 67 117 3.0 4.0 0.00 0.14 0.14 81 1009.2
20260510004006 68 116 2.0 4.0 0.00 0.14 0.14 82 1009.2
20260510003507 68 117 2.0 4.0 0.00 0.14 0.14 81 1009.2
20260510003008 68 120 3.0 4.0 0.00 0.14 0.14 81 1009.1
20260510002503 68 122 2.0 4.0 0.00 0.14 0.14 80 1009.0
20260510002006 68 122 2.0 4.0 0.00 0.14 0.14 78 1009.0
20260510001512 68 124 2.0 4.0 0.00 0.14 0.14 77 1009.1
20260510001004 68 123 2.0 4.0 0.00 0.14 0.14 78 1009.0
20260510000504 68 122 3.0 4.0 0.00 0.14 0.14 78 1008.9
20260510000012 69 123 3.0 6.0 0.00 0.14 0.14 78 1008.9
20260509235507 69 115 3.0 7.0 0.00 0.14 0.14 78 1008.9
20260509235006 69 116 4.0 8.0 0.00 0.14 0.14 76 1008.8
20260509234521 69 120 5.0 8.0 0.00 0.14 0.14 76 1008.8
20260509234006 69 120 5.0 7.0 0.00 0.14 0.14 77 1008.7
20260509233504 69 125 5.0 8.0 0.00 0.14 0.14 76 1008.7
20260509233010 69 120 6.0 8.0 0.03 0.14 0.14 75 1008.8
20260509232505 69 117 5.0 8.0 0.05 0.14 0.14 76 1008.7
20260509232010 69 148 5.0 9.0 0.07 0.14 0.14 76 1008.7
20260509231516 69 129 5.0 10.0 0.09 0.14 0.14 77 1008.7
20260509231006 69 124 6.0 10.0 0.12 0.14 0.14 78 1008.7